This is the latest recevied weather packets stored in our database for station/object KBTL-WX. If no packets are shown the sender has not sent any weather packets the latest 10 day(s).
| Time | Temp. | Humidity | Pressure | Rain* | Wind** | Luminosity | Snow |
|---|---|---|---|---|---|---|---|
| 1777723240 | 1.11° C | 77% | 985.3 hPa | 0 mm | - | - | - |
| 1777722313 | 0.56° C | 82% | 984.5 hPa | 0 mm | - | - | - |
| 1777721434 | 0° C | 83% | 985 hPa | 0 mm | - | - | - |
| 1777720513 | -0.56° C | 83% | 985 hPa | 0 mm | - | - | - |
| 1777719638 | -0.56° C | 83% | 985 hPa | 0 mm | - | - | - |
| 1777718713 | -0.56° C | 83% | 984.7 hPa | 0 mm | - | - | - |
| 1777717831 | -0.56° C | 85% | 985.2 hPa | 0 mm | - | - | - |
| 1777716914 | -0.56° C | 85% | 985.2 hPa | 0 mm | - | - | - |
| 1777716038 | -0.56° C | 85% | 985.2 hPa | 0 mm | - | - | - |
| 1777715114 | -0.56° C | 81% | 984.4 hPa | 0 mm | - | - | - |
| 1777713314 | -0.56° C | 83% | 984.9 hPa | 0 mm | - | - | - |
| 1777712436 | -0.56° C | 83% | 984.9 hPa | 0 mm | - | - | - |
| 1777711513 | -0.56° C | 82% | 984.2 hPa | 0 mm | - | - | - |
| 1777710632 | -0.56° C | 82% | 984.5 hPa | 0 mm | - | - | - |
| 1777709714 | -0.56° C | 82% | 984.5 hPa | 0 mm | - | - | - |
| 1777708838 | -0.56° C | 82% | 984.5 hPa | 0 mm | - | - | - |
| 1777707913 | -0.56° C | 82% | 983.8 hPa | 0 mm | - | - | - |
| 1777707027 | -0.56° C | 82% | 983.8 hPa | 0 mm | - | - | - |
| 1777706114 | -0.56° C | 82% | 983.8 hPa | 0 mm | - | - | - |
| 1777705234 | -0.56° C | 82% | 983.8 hPa | 0 mm | - | - | - |
| 1777704314 | -0.56° C | 76% | 984.7 hPa | 0 mm | - | - | - |
| 1777703433 | 0° C | 80% | 984.7 hPa | 0 mm | - | - | - |
| 1777702513 | 0° C | 80% | 984.7 hPa | 0 mm | - | - | - |
| 1777701641 | 0° C | 80% | 984.7 hPa | 0 mm | - | - | - |
| 1777700714 | 0° C | 70% | 983.8 hPa | 0 mm | - | - | - |
* Rain latest hour (hover to see other rain measurements)
** Current wind speed in m/s (hover to see current wind gust speed)